DW9924 Weather Reports


time (UTC)temp
F
wind
direction
speed
knots
gust
knots
rain 1hr
in
rain 24hr
in
rain mn
in
humidity
%
barometer
mb
20260507143904 65 167 1.7 6.1 0.00 0.00 0.00 78 1014.4
20260507143406 66 175 2.6 6.1 0.00 0.00 0.00 77 1014.4
20260507141905 68 164 1.7 5.2 0.00 0.00 0.00 74 1014.5
20260507141405 68 175 1.7 4.3 0.00 0.00 0.00 76 1014.4
20260507140906 67 160 1.7 5.2 0.00 0.00 0.00 75 1014.4
20260507140406 66 165 3.5 7.0 0.00 0.00 0.00 77 1014.6
20260507134404 64 176 4.3 7.8 0.00 0.00 0.00 79 1014.5
20260507133904 64 183 2.6 6.1 0.00 0.00 0.00 79 1014.5
20260507133404 64 157 2.6 6.1 0.00 0.00 0.00 81 1014.6
20260507130904 63 158 1.7 5.2 0.00 0.00 0.00 81 1014.6
20260507130404 63 146 2.6 8.7 0.00 0.00 0.00 80 1014.6
20260507124908 63 147 0.9 2.6 0.00 0.00 0.00 80 1014.6
20260507124408 63 150 0.9 2.6 0.00 0.00 0.00 80 1014.6
20260507123404 63 165 2.6 7.8 0.00 0.00 0.00 79 1014.4
20260507120905 65 151 4.3 7.8 0.00 0.00 0.00 76 1014.2
20260507120404 65 154 3.5 8.7 0.00 0.00 0.00 76 1014.3
20260507114905 68 154 3.5 5.2 0.00 0.00 0.00 71 1014.3
20260507114405 67 155 2.6 7.0 0.00 0.00 0.00 72 1014.3
20260507113404 66 184 4.3 7.8 0.00 0.00 0.00 73 1014.5
20260507111905 64 162 1.7 5.2 0.00 0.00 0.00 75 1014.5
20260507111405 65 129 2.6 7.8 0.00 0.00 0.00 75 1014.5
20260507110406 66 167 1.7 7.0 0.00 0.00 0.00 74 1014.5
20260507104905 65 171 2.6 7.0 0.00 0.00 0.00 76 1014.4
20260507104409 64 137 4.3 8.7 0.00 0.00 0.00 78 1014.4
20260507103909 63 144 3.5 7.8 0.00 0.00 0.00 78 1014.4
20260507101904 63 136 1.7 5.2 0.00 0.00 0.00 79 1014.6
20260507101404 63 149 0.9 4.3 0.00 0.00 0.00 78 1014.6
20260507100905 63 141 2.6 6.1 0.00 0.00 0.00 78 1014.6
20260507100405 63 167 2.6 7.0 0.00 0.00 0.00 78 1014.5
20260507094904 64 108 2.6 8.7 0.00 0.00 0.00 77 1014.6
20260507093910 64 128 3.5 10.4 0.00 0.00 0.00 77 1014.5
20260507093404 64 152 2.6 8.7 0.00 0.00 0.00 79 1014.5
20260507091407 64 164 4.3 10.4 0.00 0.00 0.00 75 1014.4
20260507090407 64 151 2.6 10.4 0.00 0.00 0.00 77 1014.4
20260507084907 63 167 2.6 7.0 0.00 0.00 0.00 78 1014.3
20260507084406 63 118 2.6 7.0 0.00 0.00 0.00 77 1014.2
20260507081908 64 156 2.6 6.1 0.00 0.00 0.00 76 1014.0
20260507080909 63 144 2.6 6.1 0.00 0.00 0.00 77 1014.1
20260507080406 63 156 1.7 7.0 0.00 0.00 0.00 77 1014.1
20260507074407 61 128 2.6 7.8 0.00 0.00 0.00 78 1013.8
20260507073906 61 114 1.7 6.1 0.00 0.00 0.00 77 1013.9
20260507073406 61 123 1.7 6.1 0.00 0.00 0.00 77 1013.9
20260507071907 61 86 1.7 5.2 0.00 0.00 0.00 76 1013.7
20260507071406 61 94 0.9 5.2 0.00 0.00 0.00 76 1013.6
20260507070907 62 120 0.9 5.2 0.00 0.00 0.00 76 1013.7
20260507070409 62 127 1.7 7.8 0.00 0.00 0.00 76 1013.7
20260507064914 61 80 0.9 2.6 0.00 0.00 0.00 78 1013.6
20260507064406 61 119 1.7 2.6 0.00 0.00 0.00 78 1013.4
20260507063906 61 80 1.7 4.3 0.00 0.00 0.00 79 1013.5
20260507061910 60 108 0.9 2.6 0.00 0.07 0.00 79 1013.3
20260507061406 60 100 1.7 5.2 0.00 0.07 0.00 79 1013.2
20260507060907 59 107 1.7 5.2 0.00 0.07 0.00 79 1013.1
20260507060406 59 110 1.7 2.6 0.00 0.07 0.00 79 1013.2
20260507054907 59 113 0.9 2.6 0.00 0.07 0.00 80 1013.1
20260507054407 59 124 1.7 4.3 0.00 0.07 0.00 80 1013.2
20260507053907 59 100 0.9 2.6 0.00 0.07 0.00 80 1013.1
20260507051907 59 107 2.6 5.2 0.00 0.07 0.00 80 1012.7
20260507051407 59 114 0.9 5.2 0.00 0.07 0.00 80 1012.6
20260507050906 59 129 0.9 2.6 0.00 0.07 0.00 80 1012.5
20260507050406 59 106 0.9 5.2 0.00 0.07 0.00 79 1012.5
20260507044910 59 66 1.7 6.1 0.00 0.07 0.00 79 1012.2
20260507044406 59 53 0.9 2.6 0.00 0.07 0.00 79 1012.3
20260507043906 59 103 0.9 2.6 0.00 0.07 0.00 80 1012.3
20260507043407 59 148 0.0 2.6 0.00 0.07 0.00 79 1012.3
20260507041907 59 123 0.9 2.6 0.00 0.08 0.00 79 1012.2
20260507041406 59 165 1.7 4.3 0.00 0.08 0.00 79 1012.2
20260507040906 59 113 0.0 1.7 0.00 0.08 0.00 79 1012.1
20260507040407 59 94 0.9 6.1 0.00 0.08 0.00 79 1012.0
20260507034906 59 99 1.7 7.0 0.00 0.09 0.00 79 1012.2
20260507034407 59 119 1.7 5.2 0.00 0.09 0.00 79 1012.1
20260507033407 59 68 0.9 5.2 0.00 0.09 0.00 80 1012.1
20260507031906 59 99 1.7 2.6 0.00 0.09 0.00 80 1012.1
20260507031406 59 110 1.7 6.1 0.00 0.09 0.00 80 1012.1
20260507030908 59 135 0.9 4.3 0.00 0.09 0.00 79 1012.1
20260507030408 59 108 2.6 5.2 0.00 0.09 0.00 79 1012.0
20260507024906 59 106 1.7 5.2 0.00 0.10 0.00 79 1012.1
20260507024406 59 100 0.9 2.6 0.00 0.11 0.00 79 1012.1
20260507023906 59 117 1.7 5.2 0.00 0.17 0.00 79 1012.1
20260507023406 59 109 1.7 5.2 0.00 0.25 0.00 79 1012.0
20260507021906 60 96 0.9 2.6 0.00 0.46 0.00 78 1012.2
20260507021406 60 95 2.6 7.0 0.00 0.59 0.00 78 1012.0
20260507020906 60 154 1.7 6.1 0.00 0.73 0.00 78 1012.1
20260507020406 60 100 1.7 6.1 0.00 0.93 0.00 78 1012.0
20260507014405 60 108 0.9 2.6 0.00 1.04 0.00 78 1012.1
20260507013906 60 113 1.7 2.6 0.00 1.05 0.00 78 1012.0
20260507013406 60 104 1.7 5.2 0.00 1.07 0.00 78 1012.1
20260507011906 60 142 0.9 2.6 0.00 1.16 0.00 78 1012.2
20260507011407 60 116 1.7 2.6 0.00 1.17 0.00 78 1012.1
20260507004906 60 77 0.9 2.6 0.00 1.23 0.00 77 1012.3
20260507004407 60 93 0.9 2.6 0.00 1.24 0.00 77 1012.3
20260507003408 60 118 0.9 4.3 0.00 1.24 0.00 77 1012.3
20260507001906 60 140 1.7 5.2 0.00 1.24 0.00 77 1012.2
20260507001406 60 138 1.7 4.3 0.00 1.24 0.00 77 1012.3
20260507000906 61 128 1.7 6.1 0.00 1.24 0.00 77 1012.3
20260507000406 61 119 0.9 7.0 0.00 1.24 0.00 77 1012.3
20260506234408 61 141 3.5 7.0 0.00 1.24 0.00 76 1012.4
20260506233406 60 149 1.7 4.3 0.00 1.24 0.00 76 1012.4
20260506231913 60 109 0.9 2.6 0.00 1.24 0.00 76 1012.5
20260506231407 60 104 1.7 2.6 0.00 1.24 0.00 76 1012.4
20260506230906 60 113 1.7 4.3 0.00 1.24 0.00 76 1012.4
20260506230409 60 130 1.7 6.1 0.00 1.24 0.00 76 1012.4
20260506224405 60 115 0.9 6.1 0.00 1.24 0.00 76 1012.4
20260506223907 60 129 1.7 5.2 0.00 1.24 0.00 76 1012.4
20260506223408 60 142 1.7 6.1 0.00 1.24 0.00 76 1012.4
20260506221911 60 137 0.9 2.6 0.00 1.24 0.00 76 1012.4
20260506221427 60 119 1.7 5.2 0.00 1.24 0.00 76 1012.3
20260506220906 60 122 0.9 2.6 0.00 1.24 0.00 76 1012.4
20260506220405 60 104 1.7 4.3 0.00 1.24 0.00 76 1012.4
20260506214909 60 134 1.7 4.3 0.00 1.24 1.24 77 1012.4
20260506213905 60 144 1.7 2.6 0.00 1.24 1.24 78 1012.4
20260506213405 60 129 1.7 6.1 0.00 1.24 1.24 78 1012.4
20260506211906 60 145 0.9 4.3 0.00 1.24 1.24 78 1012.3
20260506211405 60 104 0.9 5.2 0.00 1.24 1.24 78 1012.4
20260506210906 60 141 2.6 7.0 0.00 1.24 1.24 78 1012.4
20260506210409 60 147 0.9 4.3 0.00 1.24 1.24 78 1012.3
20260506204906 60 109 1.7 2.6 0.00 1.24 1.24 78 1012.3
20260506204406 60 106 0.9 2.6 0.00 1.24 1.24 78 1012.2
20260506203905 60 114 1.7 7.0 0.00 1.24 1.24 78 1012.2
20260506203405 60 126 0.9 4.3 0.00 1.24 1.24 78 1012.2
20260506201906 60 108 1.7 4.3 0.00 1.24 1.24 78 1012.2
20260506201405 60 109 0.9 4.3 0.00 1.24 1.24 79 1012.2
20260506200405 61 133 0.9 5.2 0.00 1.24 1.24 79 1012.1
20260506194906 61 110 1.7 2.6 0.00 1.24 1.24 80 1011.9
20260506194406 61 90 0.9 2.6 0.00 1.24 1.24 80 1011.8
20260506193406 61 160 0.9 5.2 0.00 1.24 1.24 80 1011.8
20260506191905 61 118 2.6 6.1 0.00 1.24 1.24 80 1011.5
20260506191405 61 159 1.7 6.1 0.00 1.24 1.24 81 1011.4
20260506190906 61 149 1.7 2.6 0.00 1.24 1.24 81 1011.3
20260506184905 61 140 1.7 5.2 0.00 1.24 1.24 81 1011.1
20260506184406 61 133 2.6 6.1 0.00 1.24 1.24 81 1011.1
20260506183408 61 133 2.6 7.0 0.00 1.24 1.24 81 1011.0
20260506181906 61 175 1.7 4.3 0.00 1.24 1.24 80 1010.8
20260506181405 61 135 2.6 5.2 0.00 1.24 1.24 81 1010.8
20260506180405 61 125 1.7 7.0 0.00 1.24 1.24 80 1010.5
20260506174408 62 130 2.6 7.8 0.00 1.24 1.24 79 1010.5
20260506173920 62 129 2.6 6.1 0.00 1.24 1.24 79 1010.5
20260506173405 62 151 2.6 7.0 0.00 1.24 1.24 79 1010.5
20260506171905 63 180 2.6 6.1 0.00 1.24 1.24 77 1010.4
20260506171405 63 156 3.5 7.0 0.00 1.24 1.24 77 1010.3
20260506170906 63 152 2.6 7.0 0.00 1.24 1.24 77 1010.3
20260506170405 63 124 2.6 7.8 0.00 1.24 1.24 77 1010.2
20260506164905 63 110 1.7 7.0 0.00 1.24 1.24 76 1010.3
20260506164406 63 161 3.5 7.0 0.00 1.24 1.24 77 1010.3
20260506163905 63 147 2.6 5.2 0.00 1.24 1.24 77 1010.4
20260506163405 63 148 2.6 6.1 0.00 1.24 1.24 78 1010.4
20260506161913 63 134 1.7 6.1 0.00 1.24 1.24 77 1010.3
20260506161404 64 140 2.6 7.0 0.00 1.24 1.24 77 1010.3
20260506160905 64 156 4.3 7.0 0.00 1.24 1.24 77 1010.3
20260506160405 64 158 2.6 7.8 0.00 1.24 1.24 77 1010.2
20260506154904 65 149 4.3 7.8 0.00 1.24 1.24 77 1010.2
20260506154405 65 192 1.7 6.1 0.00 1.24 1.24 79 1010.2
20260506153905 65 134 5.2 10.4 0.00 1.24 1.24 80 1010.2
20260506153404 64 141 4.3 7.8 0.00 1.24 1.24 79 1010.1
20260506151904 64 168 1.7 6.1 0.00 1.24 1.24 79 1010.2
20260506151407 64 163 2.6 6.1 0.00 1.24 1.24 78 1010.2
20260506150910 64 152 2.6 7.8 0.00 1.24 1.24 78 1010.3